[[{"header":{"parameterUnit":"m.s-1","parameterCategory":1,"la1":30.2991,"la2":30.254,"lo1":-89.0895,"lo2":-89.0444,"dy":0.0017,"dx":0.0017,"nx":28,"ny":28,"refTime":"2024-04-06T03:00:00:Z","depth":0,"parameterNumber":2,"parameterNumberName":"U-component_of_WINDS"},"data":[0,0,0,0,0,0,0,0,0,0,0,0,0,0,0,0,0,0,0,0,0,0,0,0,0,0,0,0,0,0,0,0,0,0,0,0,0,0,0,0,0,0,0,0,0,0,0,0,0,0,0,0,0,0,0,0,0,0,-3.0121,-3.0122,0,-3.0207,-3.0208,-3.0209,-3.019,-3.0188,-3.0187,-3.0185,-3.0272,-3.0276,-3.0279,0,0,0,0,0,0,0,0,0,0,0,0,0,-2.9938,-2.9941,-3.0121,-3.0122,-3.0123,-3.0207,-3.0208,-3.021,-3.019,-3.0188,-3.0186,-3.0184,-3.0271,-3.0275,-3.028,0,0,0,0,0,0,0,0,0,0,0,0,0,-3.002,-2.9942,-3.0121,-3.0124,-3.0125,-3.0207,-3.0208,-3.021,-3.0191,-3.0188,-3.0186,-3.0183,-3.0269,-3.0275,-3.028,-3.0365,0,0,-3.0298,-3.03,0,0,0,0,0,0,0,0,-3.0015,-3.0027,-3.0122,-3.0124,-3.0125,-3.0185,-3.0176,-3.0262,-3.0191,-3.0165,-3.0185,-3.0182,-3.0245,-3.0253,-3.0274,-3.0369,-3.0373,-3.0298,-3.0302,-3.0304,-3.0306,0,0,0,0,0,0,0,-3.001,-3.0023,-3.0155,-3.0123,-3.0125,-3.012,-3.0129,-3.0192,-3.0218,-3.0168,-3.0166,-3.0177,-3.0245,-3.0269,-3.0276,-3.0374,-3.0298,-3.0303,-3.0307,-3.0309,-3.0541,-3.0544,0,0,0,0,0,0,-3.0003,-3.0018,-3.0152,-3.0158,-3.0063,-3.0125,-3.0135,-3.0168,-3.0217,-3.0222,-3.0179,-3.0176,-3.026,-3.0269,-3.0279,-3.038,-3.0304,-3.031,-3.0313,-3.0538,-3.0542,-3.0545,0,0,0,0,0,0,-2.9999,-3.0015,-3.0149,-3.0088,-3.0104,-3.0131,-3.0168,-3.0171,-3.0195,-3.0226,-3.023,-3.0198,-3.0258,-3.0271,-3.0343,-3.0383,-3.0312,-3.0318,-3.0535,-3.0539,-3.0543,-3.0583,0,0,0,0,0,0,-2.9994,-3.0014,-3.0046,-3.0089,-3.0108,-3.0213,-3.0171,-3.0175,-3.0205,-3.0201,-3.0245,-3.025,-3.0257,-3.0335,-3.0349,-3.0389,-3.0322,-3.0532,-3.0537,-3.0542,-3.0579,-3.0588,-3.0596,0,0,0,0,0,-2.9987,-3.0054,-3.0048,-3.0064,-3.0149,-3.0215,-3.0226,-3.0234,-3.0208,-3.0241,-3.0261,-3.0248,-3.0376,-3.0343,-3.0358,-3.0401,-3.0529,-3.0536,-3.0541,-3.0574,-3.0586,-3.0596,0,0,0,0,0,0,-3.0016,-3.006,-3.0054,-3.0136,-3.0172,-3.0211,-3.0253,-3.0246,-3.029,-3.0284,-3.0292,-3.0302,-3.0376,-3.0396,-3.0357,-3.0485,-3.0449,-3.0459,-3.0469,-3.048,-3.0489,-3.0482,-3.0327,0,0,0,0,0,-3.0032,-3.0082,-3.0117,-3.0187,-3.0205,-3.0226,-3.0255,-3.0258,-3.0295,-3.031,-3.0335,-3.0371,-3.042,-3.0451,-3.0498,-3.0582,-3.059,-3.0619,-3.0628,-3.0635,-3.0643,-3.0688,-3.07,-3.0565,-3.0565,-3.0564,0,0,-3.0065,-3.0095,-3.0126,-3.0193,-3.0221,-3.0272,-3.0239,-3.0294,-3.0332,-3.0318,-3.0388,-3.0408,-3.0449,-3.0527,-3.0563,-3.0546,-3.0682,-3.0643,-3.0648,-3.0652,-3.0695,-3.0708,-3.0719,-3.0569,-3.0568,-3.0567,0,0,-3.0151,-3.018,-3.024,-3.0269,-3.0312,-3.0325,-3.034,-3.0381,-3.0393,-3.0464,-3.0454,-3.0499,-3.0583,-3.0612,-3.0637,-3.0735,-3.0725,-3.075,-3.0796,-3.084,-3.0851,-3.086,-3.0894,-3.0906,-3.0758,-3.0758,-3.0758,0,-3.0187,-3.0264,-3.0272,-3.0328,-3.0358,-3.0348,-3.0409,-3.0437,-3.0492,-3.0513,-3.0493,-3.0597,-3.0624,-3.0708,-3.0732,-3.0754,-3.077,-3.0744,-3.0848,-3.0858,-3.0867,-3.0899,-3.0912,-3.076,-3.076,-3.076,-3.076,0,-3.0305,-3.0358,-3.0402,-3.0456,-3.0491,-3.0549,-3.0565,-3.0599,-3.06,-3.0615,-3.0686,-3.0718,-3.077,-3.0791,-3.0792,-3.0876,-3.0864,-3.0847,-3.0811,-3.0882,-3.0913,-3.0925,-3.0764,-3.0763,-3.0763,-3.0762,0,0,-3.0411,-3.0469,-3.0485,-3.0509,-3.0556,-3.0597,-3.0655,-3.0706,-3.0734,-3.0773,-3.0821,-3.0892,-3.0876,-3.0905,-3.0909,-3.0948,-3.1021,-3.0926,-3.0927,-3.0941,-3.1115,-3.1126,-3.1141,-3.1016,-3.1018,-3.102,-3.1111,0,-3.05,-3.0602,-3.0611,-3.0702,-3.0751,-3.0743,-3.0793,-3.0827,-3.0843,-3.0887,-3.0904,-3.0954,-3.093,-3.0947,-3.0985,-3.1004,-3.1056,-3.0998,-3.1059,-3.1061,-3.1048,-3.1157,-3.1169,-3.1253,-3.1123,-3.1125,-3.1126,0,-3.0618,-3.0661,-3.0757,-3.0796,-3.0817,-3.0862,-3.0909,-3.0952,-3.0989,-3.0998,-3.1031,-3.103,-3.1088,-3.1051,-3.1132,-3.1092,-3.1117,-3.1131,-3.1134,-3.1139,-3.1097,-3.1163,-3.1281,-3.1293,-3.1145,-3.1144,-3.1142,0,-3.0684,-3.0766,-3.0834,-3.0855,-3.0903,-3.0934,-3.0955,-3.0991,-3.1021,-3.1063,-3.1082,-3.113,-3.1156,-3.1192,-3.1204,-3.1176,-3.1283,-3.1247,-3.1291,-3.1291,-3.1313,-3.1311,-3.1435,-3.1332,-3.1332,-3.1331,-3.1331,0,-3.0783,-3.0842,-3.0864,-3.0905,-3.0971,-3.098,-3.1045,-3.1064,-3.1096,-3.1141,-3.1137,-3.1179,-3.1192,-3.1236,-3.1245,-3.131,-3.1322,-3.133,-3.1331,-3.1329,-3.1328,-3.1345,-3.1339,-3.1335,-3.1334,-3.1333,-3.1333,0,-3.0867,-3.0885,-3.0958,-3.0997,-3.1008,-3.1055,-3.1088,-3.1128,-3.1143,-3.12,-3.1214,-3.1238,-3.1289,-3.1304,-3.1367,-3.1373,-3.1448,-3.1445,-3.1435,-3.1435,-3.1477,-3.1472,-3.1615,-3.1634,-3.1519,-3.1521,-3.1521,0,-3.0928,-3.0973,-3.1018,-3.1047,-3.107,-3.1118,-3.1149,-3.116,-3.1192,-3.1239,-3.1272,-3.1324,-3.1365,-3.1448,-3.147,-3.1517,-3.1515,-3.1561,-3.1521,-3.1518,-3.1514,-3.151,-3.1514,-3.1568,-3.157,-3.1571,-3.1571,0,-3.1035,-3.1041,-3.1085,-3.1133,-3.117,-3.1208,-3.1244,-3.1269,-3.1285,-3.1321,-3.1374,-3.1406,-3.1469,-3.152,-3.1568,-3.1589,-3.1583,-3.1584,-3.1596,-3.1594,-3.1586,-3.159,-3.1454,-3.158,-3.1579,-3.1579,-3.1578,-3.1578,-3.1108,-3.1148,-3.1185,-3.1234,-3.1263,-3.1297,-3.1336,-3.1356,-3.1401,-3.1453,-3.1457,-3.1514,-3.155,-3.1614,-3.1638,-3.1682,-3.1668,-3.1686,-3.1691,-3.1695,-3.1698,-3.158,-3.1691,-3.1691,-3.169,-3.169,-3.169,0,-3.1213,-3.1237,-3.1282,-3.1333,-3.1372,-3.1364,-3.1403,-3.1436,-3.1486,-3.1521,-3.1562,-3.1622,-3.1671,-3.1697,-3.1746,-3.1776,-3.1774,-3.1788,-3.1785,-3.179,-3.1708,-3.1692,-3.1789,-3.1789,-3.1789,-3.1789,-3.1788,-3.1788,-3.1272,-3.1338,-3.1349,-3.1428,-3.1451,-3.1507,-3.153,-3.1561,-3.1589,-3.1656,-3.1697,-3.1714,-3.1745,-3.1796,-3.184,-3.1846,-3.1863,-3.1879,-3.1884,-3.1806,-3.1796,-3.1786,-3.1771,-3.1883,-3.1883,-3.1962,-3.1963,-3.1963]},{"header":{"parameterUnit":"m.s-1","parameterCategory":1,"la1":30.2991,"la2":30.254,"lo1":-89.0895,"lo2":-89.0444,"dy":0.0017,"dx":0.0017,"nx":28,"ny":28,"refTime":"2024-04-06T03:00:00:Z","depth":0,"parameterNumber":3,"parameterNumberName":"V-component_of_WINDS"},"data":[0,0,0,0,0,0,0,0,0,0,0,0,0,0,0,0,0,0,0,0,0,0,0,0,0,0,0,0,0,0,0,0,0,0,0,0,0,0,0,0,0,0,0,0,0,0,0,0,0,0,0,0,0,0,0,0,0,0,3.1821,3.1821,0,3.1824,3.1824,3.1824,3.1751,3.175,3.1748,3.1746,3.1748,3.175,3.1752,0,0,0,0,0,0,0,0,0,0,0,0,0,3.1751,3.1753,3.1821,3.1821,3.1821,3.1824,3.1824,3.1824,3.1752,3.1749,3.1747,3.1745,3.1747,3.1749,3.1752,0,0,0,0,0,0,0,0,0,0,0,0,0,3.1771,3.1754,3.1821,3.1785,3.1782,3.1824,3.1824,3.1824,3.1752,3.1749,3.1746,3.1744,3.1747,3.1749,3.1752,3.1827,0,0,3.1761,3.1762,0,0,0,0,0,0,0,0,3.177,3.1773,3.179,3.1788,3.1784,3.1784,3.18,3.1825,3.1753,3.1764,3.1746,3.1742,3.1762,3.1764,3.177,3.1827,3.1828,3.1761,3.1762,3.1764,3.1764,0,0,0,0,0,0,0,3.1768,3.1773,3.1822,3.1791,3.1787,3.1769,3.1768,3.1804,3.1779,3.1762,3.1757,3.1759,3.176,3.1768,3.177,3.1828,3.1761,3.1763,3.1765,3.1766,3.1945,3.1948,0,0,0,0,0,0,3.1772,3.1772,3.1822,3.1822,3.177,3.1772,3.1772,3.1787,3.1779,3.1774,3.1761,3.1755,3.1765,3.1767,3.177,3.1856,3.1764,3.1766,3.1768,3.1942,3.1946,3.1949,0,0,0,0,0,0,3.1771,3.1777,3.1822,3.1796,3.18,3.1777,3.1794,3.1789,3.1797,3.1778,3.1773,3.1774,3.1762,3.1766,3.1813,3.1855,3.1768,3.177,3.1939,3.1944,3.1948,3.203,0,0,0,0,0,0,3.1769,3.1777,3.1806,3.1797,3.1802,3.1866,3.1797,3.1791,3.1802,3.1794,3.1788,3.1784,3.176,3.181,3.1816,3.1857,3.1772,3.1935,3.1941,3.1946,3.2024,3.2037,3.2049,0,0,0,0,0,3.1767,3.1829,3.1808,3.1814,3.1837,3.1868,3.1871,3.1842,3.1805,3.1834,3.1821,3.1785,3.185,3.1815,3.1822,3.1865,3.1932,3.1939,3.1946,3.2018,3.2035,3.2049,0,0,0,0,0,0,3.1843,3.1827,3.1803,3.1864,3.1868,3.1856,3.1891,3.1861,3.1875,3.1867,3.1831,3.183,3.1883,3.1879,3.184,3.1937,3.1884,3.1893,3.1937,3.1953,3.1965,3.1964,3.1775,0,0,0,0,0,3.1867,3.1894,3.1879,3.1934,3.1937,3.1914,3.1927,3.1904,3.1907,3.1908,3.1899,3.1902,3.1923,3.1938,3.1957,3.2024,3.2021,3.2056,3.2069,3.2079,3.2087,3.2121,3.2136,3.1972,3.1972,3.1972,0,0,3.1917,3.1911,3.1931,3.1949,3.195,3.1978,3.1916,3.1948,3.1969,3.1913,3.1956,3.1951,3.1952,3.2009,3.2034,3.2007,3.2132,3.2088,3.2097,3.2098,3.2129,3.2145,3.2159,3.1977,3.1976,3.1975,0,0,3.2021,3.2021,3.2066,3.2068,3.2069,3.2053,3.2064,3.2057,3.2051,3.2094,3.2052,3.2076,3.2114,3.2116,3.2122,3.2229,3.2195,3.2236,3.23,3.2334,3.2347,3.2358,3.2394,3.2408,3.2244,3.2244,3.2244,0,3.2082,3.2123,3.2093,3.2128,3.2137,3.2088,3.2134,3.2137,3.2144,3.2151,3.2122,3.2168,3.2165,3.2222,3.2248,3.2255,3.2266,3.2235,3.2348,3.2358,3.2368,3.2403,3.2417,3.2249,3.2248,3.2247,3.2247,0,3.2198,3.2227,3.2264,3.2272,3.2285,3.2326,3.2301,3.2318,3.2295,3.2282,3.2327,3.2323,3.2339,3.2351,3.2329,3.2405,3.2388,3.2354,3.23,3.2389,3.2421,3.2434,3.2255,3.2254,3.2252,3.2251,0,0,3.2349,3.234,3.2354,3.2357,3.2355,3.2377,3.2415,3.2431,3.2446,3.2453,3.2483,3.2517,3.2485,3.2492,3.247,3.25,3.2582,3.2461,3.2461,3.2482,3.2664,3.2688,3.2704,3.2561,3.2563,3.2565,3.2663,0,3.2448,3.2513,3.2486,3.2553,3.2579,3.2533,3.2566,3.2569,3.2558,3.2578,3.2566,3.259,3.2547,3.2551,3.2578,3.2566,3.2618,3.2559,3.2587,3.2589,3.2586,3.2721,3.2747,3.2839,3.2675,3.2677,3.2679,0,3.2573,3.2585,3.2655,3.2648,3.2658,3.2688,3.27,3.2721,3.2722,3.2712,3.2721,3.2692,3.2728,3.2677,3.2726,3.2686,3.2697,3.2693,3.2696,3.2695,3.2638,3.2722,3.2868,3.2881,3.2698,3.2697,3.2695,0,3.2674,3.2708,3.2753,3.2758,3.2751,3.2773,3.2772,3.2771,3.2782,3.2793,3.28,3.2816,3.2824,3.2836,3.2812,3.2777,3.2864,3.2811,3.2856,3.2856,3.2874,3.2873,3.3022,3.2885,3.2884,3.2884,3.2884,0,3.2787,3.2831,3.2799,3.2826,3.2874,3.2843,3.2891,3.2884,3.2884,3.2909,3.2871,3.2896,3.2863,3.2885,3.2866,3.2909,3.2913,3.2906,3.29,3.2908,3.2909,3.2913,3.2905,3.2888,3.2887,3.2886,3.2886,0,3.2907,3.2888,3.2934,3.2924,3.2923,3.2958,3.295,3.2975,3.2962,3.2994,3.3,3.298,3.3003,3.2981,3.3003,3.299,3.3047,3.3033,3.3046,3.3041,3.3087,3.3082,3.3242,3.3261,3.3113,3.3115,3.3116,0,3.298,3.3012,3.3006,3.3021,3.3021,3.3045,3.3056,3.3028,3.3041,3.3046,3.307,3.309,3.3104,3.3143,3.313,3.3147,3.3132,3.3187,3.3134,3.3141,3.313,3.3128,3.3131,3.3197,3.3198,3.32,3.3201,0,3.311,3.3099,3.3117,3.3132,3.3146,3.3157,3.3164,3.3178,3.3149,3.3166,3.3189,3.32,3.3222,3.3242,3.3255,3.3252,3.3222,3.3218,3.3229,3.3237,3.3242,3.3238,3.3073,3.3214,3.3213,3.3212,3.3211,3.3211,3.3207,3.3234,3.3233,3.3255,3.3257,3.3265,3.3288,3.3278,3.3297,3.3312,3.3295,3.3323,3.3324,3.3337,3.3339,3.336,3.3337,3.3353,3.3357,3.3361,3.3367,3.3241,3.3363,3.3362,3.3362,3.3362,3.3361,0,3.3334,3.3332,3.3352,3.3363,3.338,3.3351,3.3357,3.3373,3.3398,3.3401,3.3416,3.3442,3.3462,3.3451,3.3467,3.3486,3.3473,3.3491,3.3489,3.3488,3.3388,3.3376,3.3502,3.3502,3.3502,3.3502,3.3502,3.3502,3.3402,3.3445,3.3433,3.3477,3.3474,3.3501,3.3507,3.3514,3.3516,3.3548,3.3563,3.3556,3.3554,3.357,3.3586,3.3582,3.3589,3.3613,3.3604,3.351,3.3496,3.3482,3.3471,3.3615,3.3615,3.3702,3.3703,3.3704]}]]